Regional Weather Roundup
Issued by NWS Burlington, VT

Home | Current Version | Previous Version | Text Only | Print | Product List | Glossary On
Versions: 1 2 3 4 5 6 7 8 9 10 11 12 13 14 15 16 17 18 19 20 21 22 23 24 25 26 27 28 29 30 31 32 33 34 35 36 37 38 39 40 41 42 43 44 45 46 47 48 49 50
000
ASUS41 KBTV 220730
RWRBTV
VERMONT REGIONAL WEATHER ROUNDUP
NATIONAL WEATHER SERVICE BURLINGTON VT
200 AM EST MON DEC 22 2014

NOTE: "FAIR" INDICATES FEW OR NO CLOUDS BELOW 12,000 FEET WITH NO
SIGNIFICANT WEATHER AND/OR OBSTRUCTIONS TO VISIBILITY.

* THESE REPORTS ARE NOT UNDER NWS QUALITY CONTROL AND/OR DO NOT
  REPORT WEATHER SUCH AS PRECIPITATION AND FOG.

VTZ001>019-220800-
_____VERMONT_____


CITY           SKY/WX    TMP DP  RH WIND       PRES   REMARKS
BURLINGTON     CLOUDY    25  21  85 E3        30.37F
MONTPELIER     CLOUDY    23  21  92 CALM      30.37R
MORRISVILLE    CLOUDY    23  20  88 CALM      30.37S
ST. JOHNSBURY*   N/A     26  22  84 MISG      30.35S
LYNDONVILLE*   CLOUDY    24  20  87 CALM      30.35S
MIDDLEBURY*    CLOUDY    25  25 100 CALM      30.36R
RUTLAND*       CLOUDY    25  23  93 CALM      30.34S
SPRINGFIELD    CLOUDY    28  27  96 CALM      30.36S FOG
HIGHGATE*      CLOUDY    19  17  93 CALM      30.40R FOG
NEWPORT*       CLOUDY    19  17  92 CALM      30.36S FOG
BENNINGTON     CLOUDY    28  25  88 CALM      30.33R FOG
GALLUP MILLS*    N/A     23 N/A N/A MISG        N/A
UNION VILLAGE*   N/A     27 N/A N/A MISG        N/A
MT. MANSFIELD*   N/A     16 N/A N/A CALM        N/A

_____LAKE CHAMPLAIN_____


CITY           SKY/WX    TMP DP  RH WIND       PRES   REMARKS
BURTON ISLAND*   N/A     27  25  93 NW1         N/A
COLCHESTER RF*   N/A     28  27  93 SE1         N/A

$$

NYZ007-026>031-035-052-083-220800-
_____NORTHERN NEW YORK_____


CITY           SKY/WX    TMP DP  RH WIND       PRES   REMARKS
PLATTSBURGH    CLOUDY    23  20  88 CALM      30.39R FOG
SARANAC LAKE   SUNNY      7  32 100 CALM      30.26R
MASSENA        CLOUDY    15  12  88 E5        30.39S
OGDENSBURG*    CLOUDY    18  18 100 NE5       30.38R FOG
POTSDAM*       MOSUNNY    9   7  92 CALM      30.37R
STARK FALLS*     N/A     18 N/A N/A SE7         N/A
WATERTOWN      MOSUNNY   20  15  81 E3        30.33F HAZE
FT DRUM        MOSUNNY   20  18  90 SE9       30.31S
ALBANY         CLOUDY    30  23  75 N3        30.37S
GLENS FALLS    CLOUDY    27  22  81 E3        30.37S

$$
NHZ002-005-011-220800-
_____NEW HAMPSHIRE_____


CITY           SKY/WX    TMP DP  RH WIND       PRES   REMARKS
LEBANON        CLOUDY    28  25  88 CALM      30.36R
KEENE          CLOUDY    30  30 100 CALM      30.35S
MT WASHINGTON  FOG       10  10 100 W28         N/A  VSB 1/16WCI -11
PLYMOUTH       CLOUDY    28  28 100 CALM      30.37R
WHITEFIELD     CLOUDY    26  23  88 CALM      30.34R

$$

_____REGIONAL QUEBEC LOCATIONS_____


CITY           SKY/WX    TMP DP  RH WIND       PRES   REMARKS
MONTREAL       CLOUDY    18  12  79 NE8       30.42
QUEBEC CITY    FLURRIES  16  12  86 CALM      30.42R
SHERBROOKE     FLURRIES  19  18  93 NE2       30.37S

_____REGIONAL ONTARIO LOCATIONS_____


CITY           SKY/WX    TMP DP  RH WIND       PRES   REMARKS
OTTAWA         CLOUDY    16  16 100 E3        30.39R FOG

______KEY______
VSB  - VISIBILITY IN MILES
WCI  - WIND CHILL INDEX
HX   - HEAT INDEX
$$
NNNN


USA.gov is the U.S. government's official web portal to all federal, state and local government web resources and services.